Location: Lecco
(45.8566°N, 9.3977°E)
Time: 13:18:24
(UTC+02:00)

Vanguard 2 Rocket - Pass Details

Date: 15 August 2020
Orbit: 554 x 3326 km, 32.9° (Epoch: 24 September)

Event Time Altitude Azimuth Distance (km) Brightness Sun altitude
Rises 18:03:28 0° 228° (SW) 3,000 10.4 24.3°
Reaches altitude 10° 18:05:55 10° 212° (SSW) 2,286 9.6 23.9°
Maximum altitude 18:10:02 23° 160° (SSE) 1,931 8.6 23.1°
Drops below altitude 10° 18:15:53 10° 112° (ESE) 3,363 9.4 22.1°
Sets 18:20:25 0° 100° (E) 4,871 10.0 21.3°
